Starlink 31989

operational
NORAD ID: 59959 Int'l Des: 2024-107 Owner: SPXS Country: US Constellation: starlink
LEOCIRCULAR

Starlink 31989について

説明を読み込み中...

リアルタイム位置

3D地球を読み込み中...

次回通過

高度履歴

Altitude vs Time

uPlot chart will show altitude changes over time

軌道要素

1 59959U 24107Q 25306.29640097 .00001230 00000-0 53681-4 0 9997
2 59959 53.1605 297.1454 0001381 99.7601 260.3556 15.30187183 80299
Epoch: Nov 2, 2025 • Age: 47 hours

現在のステータス

高度 476.5 km
速度 7.63 km/s
衛星直下点 29.49°N, 174.61°E
打ち上げ日 Jun 5, 2024
運用期間 1.4 years
タイプ internet

技術仕様

分類 Payload
質量 730.00 kg
乾燥質量 700.00 kg
総質量 730.00 kg
長さ 0.30 m
直径 4.10 m
スパン 29.00 m
形状 Box + pan
製造者 SPXS
バスタイプ Starlink V2M
フェーズステータス In Orbit
所有者/国 SPXS/US

大規模コンステレーション

Loading constellations...